Location: Northam
(31.6525°S, 116.6655°E)
Time: 00:11:25
(UTC+08:00)

Hubble Space Telescope - Pass Details

Date: 16 May 2021
Orbit: 535 x 539 km, 28.5° (Epoch: 19 June)

Event Time Altitude Azimuth Distance (km) Brightness Sun altitude
Rises 19:28:41 0° 293° (WNW) 2,685 5.5 -26.4°
Reaches altitude 10° 19:31:01 10° 299° (WNW) 1,796 4.3 -26.9°
Enters shadow 19:33:36 31° 325° (NW) 952 2.3 -27.4°
